This is the latest recevied weather packets stored in our database for station/object WV8BRW. If no packets are shown the sender has not sent any weather packets the latest 10 day(s).
| Time | Temp. | Humidity | Pressure | Rain* | Wind** | Luminosity | Snow |
|---|---|---|---|---|---|---|---|
| 1777724743 | 3.89° C | 99% | 1015.7 hPa | 0 mm | - | 94 W/m² | - |
| 1777724440 | 3.89° C | 99% | 1015.8 hPa | 0 mm | - | 71 W/m² | - |
| 1777724138 | 3.33° C | 99% | 1015.7 hPa | 0 mm | - | 87 W/m² | - |
| 1777723835 | 2.78° C | 99% | 1015.9 hPa | 0 mm | - | 76 W/m² | - |
| 1777723531 | 2.22° C | 99% | 1015.8 hPa | 0 mm | - | 63 W/m² | - |
| 1777723228 | 2.22° C | 99% | 1016 hPa | 0 mm | - | 70 W/m² | - |
| 1777722926 | 2.22° C | 99% | 1015.6 hPa | 0 mm | - | 52 W/m² | - |
| 1777722622 | 2.22° C | 99% | 1015.8 hPa | 0 mm | - | 60 W/m² | - |
| 1777722319 | 1.67° C | 99% | 1015.9 hPa | 0 mm | - | 52 W/m² | - |
| 1777722015 | 1.67° C | 99% | 1015.6 hPa | 0 mm | - | 46 W/m² | - |
| 1777721713 | 1.67° C | 99% | 1015.6 hPa | 0 mm | - | 39 W/m² | - |
| 1777721412 | 1.11° C | 99% | 1015.7 hPa | 0 mm | - | 35 W/m² | - |
| 1777721109 | 1.11° C | 99% | 1015.4 hPa | 0 mm | - | 33 W/m² | - |
| 1777720806 | 1.11° C | 99% | 1015.5 hPa | 0 mm | - | 29 W/m² | - |
| 1777720504 | 1.11° C | 99% | 1015.4 hPa | 0 mm | - | 27 W/m² | - |
| 1777720201 | 1.11° C | 99% | 1015.4 hPa | 0 mm | - | 25 W/m² | - |
| 1777719898 | 1.11° C | 99% | 1015.4 hPa | 0 mm | - | 25 W/m² | - |
| 1777719595 | 1.11° C | 99% | 1015.3 hPa | 0 mm | - | 23 W/m² | - |
| 1777719293 | 1.11° C | 99% | 1015.3 hPa | 0 mm | - | 18 W/m² | - |
| 1777718990 | 1.11° C | 99% | 1015.5 hPa | 0 mm | - | 13 W/m² | - |
| 1777718688 | 1.11° C | 99% | 1015.4 hPa | 0 mm | - | 8 W/m² | - |
| 1777718385 | 1.11° C | 99% | 1015.3 hPa | 0 mm | - | 3 W/m² | - |
| 1777718082 | 1.11° C | 99% | 1015.6 hPa | 0 mm | - | 2 W/m² | - |
| 1777717779 | 1.11° C | 99% | 1015.1 hPa | 0 mm | - | 0 W/m² | - |
| 1777717476 | 1.11° C | 99% | 1015.3 hPa | 0 mm | - | 0 W/m² | - |
* Rain latest hour (hover to see other rain measurements)
** Current wind speed in m/s (hover to see current wind gust speed)